Regional Weather Roundup
Issued by NWS

Home | Current Version | Previous Version | Graphics & Text | Print | Product List | Glossary Off
Versions: 1 2 3 4 5 6 7 8 9 10 11 12 13 14 15 16 17 18 19 20 21 22 23 24 25 26 27 28 29 30 31 32 33 34 35 36 37 38 39 40 41 42 43 44 45 46 47 48 49 50

000
ASUS43 KDTX 191810
RWRMI
MICHIGAN HOURLY REGIONAL WEATHER ROUNDUP
NATIONAL WEATHER SERVICE DETROIT/PONTIAC MI
ISSUED BY NATIONAL WEATHER SERVICE GRAND RAPIDS MI
100 PM EST THU JAN 19 2017

NOTE: "FAIR" INDICATES FEW OR NO CLOUDS BELOW 12,000 FEET WITH NO
SIGNIFICANT WEATHER AND/OR OBSTRUCTION TO VISIBILITY.

MIZ047>049-052>055-059>063-066>070-074>076-081>083-191900-
SOUTHEAST LOWER MICHIGAN

CITY           SKY/WX    TMP DP  RH WIND       PRES   REMARKS
ADRIAN         CLOUDY    34  33  96 S6        30.01F WCI  29
6HR MIN TEMP:  32; 6HR MAX TEMP:  34;

ALMA           CLOUDY    37  34  87 S10       29.98F FOG     WCI  30
6HR MIN TEMP:  35; 6HR MAX TEMP:  37;

ANN ARBOR      CLOUDY    35  32  88 VRB3      29.99F
BAD AXE        CLOUDY    33  32  96 SW7       29.99F FOG     WCI  27
6HR MIN TEMP:  32; 6HR MAX TEMP:  33;

DETROIT CITY   CLOUDY    37  34  87 MISG      30.03F HAZE
DETROIT        CLOUDY    37  32  82 S5        30.02F WCI  33
6HR MIN TEMP:  34; 6HR MAX TEMP:  37;

FLINT          MOSUNNY   37  32  82 VRB5      29.98F WCI  33
6HR MIN TEMP:  33; 6HR MAX TEMP:  37;

GROSSE ILE     CLOUDY    34  32  91 S6        30.01F FOG     WCI  29
6HR MIN TEMP:  33; 6HR MAX TEMP:  35;

HILLSDALE      CLOUDY    36  32  87 E3        29.96F FOG
HOWELL         CLOUDY    37  32  81 SW8       29.98F WCI  31

CITY           SKY/WX    TMP DP  RH WIND       PRES   REMARKS
JACKSON        CLOUDY    39  32  76 VRB6      29.97F WCI  35
6HR MIN TEMP:  32; 6HR MAX TEMP:  39;

LANSING        CLOUDY    38  30  73 S7        29.98F WCI  33
6HR MIN TEMP:  33; 6HR MAX TEMP:  38;

MASON          CLOUDY    36  33  90 S5        29.99F WCI  32
MONROE         CLOUDY    36  33  90 W3        30.01F FOG
6HR MIN TEMP:  33; 6HR MAX TEMP:  36;

MT. CLEMENS    CLOUDY    35  32  87 E5        30.00F FOG     WCI  31
6HR MIN TEMP:  33; 6HR MAX TEMP:  36;

PONTIAC        PTSUNNY   36  31  82 CALM      29.98F
6HR MIN TEMP:  31; 6HR MAX TEMP:  36;

PORT HOPE        N/A     34  32  92 SW7       29.98F WCI  28
6HR MIN TEMP:  33; 6HR MAX TEMP:  35;

PORT HURON     CLOUDY    34  32  93 S5        30.03F WCI  30
TRI CITIES     CLOUDY    37  34  89 SW8       29.98F FOG     WCI  31
6HR MIN TEMP:  34; 6HR MAX TEMP:  37;

YPSILANTI      CLOUDY    37  32  82 CALM      30.01F
6HR MIN TEMP:  34; 6HR MAX TEMP:  37;

$$
MIZ043>046-050>051-056>058-064>065-071>073-077>080-191900-
SOUTHWEST LOWER MICHIGAN

CITY           SKY/WX    TMP DP  RH WIND       PRES   REMARKS
BATTLE CREEK   CLOUDY    39  33  79 SE6       29.97F WCI  35
6HR MIN TEMP:  33; 6HR MAX TEMP:  39;

BENTON HARBOR  CLOUDY    39  35  86 SE7       29.97F FOG     WCI  34
6HR MIN TEMP:  36; 6HR MAX TEMP:  39;

BIG RAPIDS     CLOUDY    37  32  82 SE3       29.94F
6HR MIN TEMP:  33; 6HR MAX TEMP:  37;

COLDWATER      PTSUNNY   38  35  86 SE7       29.98F WCI  33
6HR MIN TEMP:  33; 6HR MAX TEMP:  38;

HOLLAND        CLOUDY    37  34  89 SE6       29.97F WCI  32
6HR MIN TEMP:  37; 6HR MAX TEMP:  38;

GRAND RAPIDS   CLOUDY    36  32  85 S3        29.97F FOG
6HR MIN TEMP:  35; 6HR MAX TEMP:  36;

KALAMAZOO      CLOUDY    38  33  82 S5        29.99F HAZE    WCI  34
6HR MIN TEMP:  34; 6HR MAX TEMP:  38;

MARSHALL       CLOUDY    40  34  80 SE3       29.97F
6HR MIN TEMP:  32; 6HR MAX TEMP:  40;

MOUNT PLEASANT CLOUDY    39  34  84 S6        29.96F HAZE    WCI  34
6HR MIN TEMP:  35; 6HR MAX TEMP:  39;

MUSKEGON       CLOUDY    39  35  86 S7        29.97F WCI  34
6HR MIN TEMP:  37; 6HR MAX TEMP:  40;

STURGIS        CLOUDY    37  34  89 SE5       29.97F FOG     WCI  33
6HR MIN TEMP:  32; 6HR MAX TEMP:  37;

$$
MIZ016>042-191900-
NORTHERN LOWER MICHIGAN

CITY           SKY/WX    TMP DP  RH WIND       PRES   REMARKS
ALPENA         CLOUDY    36  31  82 SW5       29.96F WCI  32
6HR MIN TEMP:  34; 6HR MAX TEMP:  36;

BEAVER ISLAND  CLOUDY    35  35 100 SW8       29.92F FOG     WCI  29
6HR MIN TEMP:  34; 6HR MAX TEMP:  36;

BELLAIRE       CLOUDY    35  33  91 S6        29.95F FOG     WCI  30
6HR MIN TEMP:  34; 6HR MAX TEMP:  35;

CADILLAC       FOG       32  32  99 S5        29.92F VSB 1/4 WCI  28
CHARLEVOIX     CLOUDY    35  35  99 S7        29.95F FOG     WCI  29
GAYLORD        FOG       35  31  85 S7        29.91F VSB 1   WCI  29
6HR MIN TEMP:  34; 6HR MAX TEMP:  35;

HOUGHTON LAKE  FOG       33  32  96 S6        29.94F VSB 1   WCI  28
6HR MIN TEMP:  33; 6HR MAX TEMP:  33;

MANISTEE       CLOUDY    36  33  89 S7        29.94F FOG     WCI  30
OSCODA         CLOUDY    37  34  91 SW7       29.98S FOG     WCI  31
6HR MIN TEMP:  34; 6HR MAX TEMP:  37;

PELLSTON       CLOUDY    35  32  88 S7        29.94F FOG     WCI  29
6HR MIN TEMP:  35; 6HR MAX TEMP:  36;

TRAVERSE CITY  CLOUDY    36  33  89 VRB7      29.92F FOG     WCI  30
6HR MIN TEMP:  35; 6HR MAX TEMP:  36;

LUDINGTON      CLOUDY    37  35  92 S8        29.95F FOG     WCI  30
6HR MIN TEMP:  34; 6HR MAX TEMP:  37;

$$
MIZ007>008-015-191900-
EASTERN UPPER MICHIGAN

CITY           SKY/WX    TMP DP  RH WIND       PRES   REMARKS
KINROSS        CLOUDY    36  33  89 S7        29.92F FOG     WCI  30
6HR MIN TEMP:  34; 6HR MAX TEMP:  37;

MACKINAC ISLAN CLOUDY    34  34 100 S5        29.93F FOG     WCI  30
6HR MIN TEMP:  34; 6HR MAX TEMP:  35;

NEWBERRY       FOG       32  32  99 S13       29.88F VSB 1/4 WCI  22
6HR MIN TEMP:  31; 6HR MAX TEMP:  33;

S. S. MARIE    CLOUDY    37  32  82 S7        29.91F HAZE    WCI  32
6HR MIN TEMP:  36; 6HR MAX TEMP:  37;

$$
MIZ004>006-011>014-085-191900-
CENTRAL UPPER MICHIGAN

CITY           SKY/WX    TMP DP  RH WIND       PRES   REMARKS
MANISTIQUE     FOG       31  31  99 SW8       29.89F VSB<1/4 WCI  24
6HR MIN TEMP:  29; 6HR MAX TEMP:  31;

ESCANABA       FOG       33  33 100 S7        29.89F VSB 3/4 WCI  27
6HR MIN TEMP:  27; 6HR MAX TEMP:  33;

SAWYER-GWINN   FOG       32  30  93 SW9       29.84F VSB 1/4 WCI  24
$$
MIZ001>003-009>011-084-191900-
WESTERN UPPER MICHIGAN

CITY           SKY/WX    TMP DP  RH WIND       PRES   REMARKS
IRON MOUNTAIN  CLOUDY    35  31  85 S5        29.83F FOG     WCI  31
6HR MIN TEMP:  29; 6HR MAX TEMP:  35;

HOUGHTON       FOG       34  32  92 CALM      29.79F VSB<1/4
6HR MIN TEMP:  22; 6HR MAX TEMP:  34; 6HR PCP:  0.44;

COPPER HARBOR    N/A     39  30  70 CALM      29.81F
6HR MIN TEMP:  29; 6HR MAX TEMP:  39;

IRONWOOD       SUNNY     41  35  79 S8        29.78F
6HR MIN TEMP:  34; 6HR MAX TEMP:  41;

$$

ABBREVIATIONS USED IN REMARKS
   TC - TEMPERATURE IN CELSIUS
  WCI - WIND CHILL INDEX
   HX - HEAT INDEX
  VSB - VISIBILITY





USA.gov is the U.S. government's official web portal to all federal, state and local government web resources and services.